Flag for Australia Weather past 2 weeks in Geelong, Victoria, Australia

Now
54 °F

Cool.


Feels Like: 54 °F
Forecast: 53 / 66 °F
Wind: 3 mph from Northwest

Location: Geelong Airport Aws

Current Time: Mar 28, 2015 at 8:20:37 AM

Latest Report: Mar 28, 2015 at 7:00 AM


Visibility: N/A

Pressure: 30.26 "Hg

Humidity: 83%

Dew point: 49 °F

Location of GeelongLocation

Historic Weather in Geelong — Graph

°F

Geelong temperature yesterday

Maximum temperature yesterday: 62 °F (at 3:00 PM)
Minimum temperature yesterday: 54 °F (at 4:00 AM)
Average temperature yesterday: 58 °F

Past Weeks' High & Low Weather Summary

 TemperatureHumidityPressure
High93 °F (Mar 19, 3:00 PM)94% (Mar 19, 1:00 AM)30.34 "Hg (Mar 19, 1:00 AM)
Low46 °F (Mar 21, 7:00 AM)15% (Mar 14, 4:00 PM)29.50 "Hg (Mar 17, 4:00 PM)
Average62 °F66%29.98 "Hg
* Reported Mar 13 7:00 AM — Mar 28 7:00 AM, Geelong, Weather by CustomWeather, © 2015

Note: Actual official high and low records may vary slightly from our data, if they occured in-between our weather recording intervals... More about our weather records

Advertising

Geelong weather history for previous 24 hours

 ConditionsComfort  
Time TempWeatherWind HumidityBarometerVisibility
7:00 AM
Sat, Mar 28
54 °FCool.3 mph83%30.26 "HgN/A
6:00 AM55 °FCool.6 mph81%30.26 "HgN/A
4:00 AM55 °FCool.6 mph79%30.25 "HgN/A
3:00 AM56 °FCool.7 mph76%30.26 "HgN/A
1:00 AM56 °FCool.7 mph76%30.27 "HgN/A
12:00 AM56 °FCool.7 mph78%30.27 "HgN/A
10:00 PM
Fri, Mar 27
58 °FCool.6 mph68%30.28 "HgN/A
9:00 PM58 °FCool.7 mph64%30.27 "HgN/A
7:00 PM61 °FRefreshingly cool.7 mph54%30.23 "HgN/A
6:00 PM62 °FRefreshingly cool.10 mph52%30.22 "HgN/A
4:00 PM62 °FRefreshingly cool.13 mph52%30.22 "HgN/A
3:00 PM62 °FRefreshingly cool.14 mph53%30.22 "HgN/A
1:00 PM61 °FRefreshingly cool.17 mph59%30.24 "HgN/A
12:00 PM61 °FCool.14 mph61%30.24 "HgN/A
10:00 AM57 °FCool.15 mph80%30.21 "HgN/A
9:00 AM56 °FCool.13 mph86%30.20 "HgN/A
Weather by CustomWeather, © 2015

See weather overviewHow to use our weather pages